CAPE
0 0 0 0 0 0 0 0 0 0 0 0 0 0 1 0 0 0 0 0 0 0 0 0 2 2 8 8 70 351 545 233 228 185 484 280 393 326 708 416 192 92 77 52 25
0 0 0 0 0 0 0 0 0 0 0 0 0 1 1 0 0 0 0 0 0 0 0 0 0 1 0 0 2 49 268 295 188 371 375 386 720 799 545 306 206 94 14 74 125
0 0 0 0 0 0 0 0 0 0 0 0 0 0 0 0 0 0 0 0 0 0 0 0 0 0 0 0 0 0 55 228 305 370 100 597 784 780 686 542 387 138 25 115 174
0 0 0 0 0 0 0 0 0 0 0 0 0 0 0 0 0 0 0 0 0 0 0 0 0 0 0 0 0 0 0 413 422 340 130 637 731 660 718 756 597 185 61 85 169
0 0 0 0 0 0 0 0 0 0 0 0 0 0 0 0 0 0 0 0 0 0 0 0 0 0 0 0 0 0 0 8 199 354 136 163 458 580 630 692 454 204 51 74 134
0 0 0 0 0 0 0 0 0 0 0 0 0 0 0 0 0 0 0 0 0 0 0 0 0 0 0 0 0 0 0 0 0 12 33 115 289 445 696 524 397 194 75 81 118
0 0 0 0 0 0 0 0 0 0 0 0 0 0 0 0 0 0 0 0 0 0 0 0 0 0 0 0 0 0 0 0 0 0 0 16 90 424 694 480 435 277 129 81 75
0 0 0 0 0 0 0 0 0 0 0 0 0 0 0 0 0 0 0 0 0 0 0 0 0 0 0 0 0 0 0 0 0 0 0 106 282 533 561 515 505 355 168 114 101
0 0 0 0 0 0 0 0 0 0 0 0 0 0 0 0 0 0 0 0 0 0 0 0 0 0 0 0 0 0 0 0 0 0 30 156 356 986 551 592 553 409 217 156 119
0 0 0 0 0 0 0 0 0 0 0 0 0 0 0 0 0 0 0 0 0 0 0 0 0 0 0 0 0 0 0 0 0 0 48 278 429 721 602 608 591 485 280 167 157
0 0 0 0 0 0 0 0 0 0 0 0 0 0 0 0 0 0 0 0 0 0 0 0 0 0 0 0 0 0 0 0 0 10 20 78 365 664 522 564 589 566 400 174 199
0 0 0 0 0 0 0 0 0 0 0 0 0 0 0 0 0 0 0 0 0 0 0 0 0 0 0 0 0 0 0 0 0 0 0 34 103 284 711 497 601 653 551 212 205
0 0 0 0 0 0 0 0 0 0 0 0 0 0 0 0 0 0 0 0 0 0 0 0 0 0 0 0 0 0 0 0 0 0 0 11 61 49 140 527 372 548 619 352 170
0 0 0 0 0 0 0 0 0 0 0 0 0 0 0 0 0 0 0 0 0 0 0 0 0 0 0 0 0 0 0 0 0 0 0 0 14 29 12 312 371 418 494 472 265
0 0 0 0 0 0 0 0 0 0 0 0 0 0 0 0 0 0 0 0 0 0 0 0 0 0 0 0 0 0 0 0 0 0 0 43 48 49 66 146 309 462 463 421 372
0 0 0 0 0 0 0 0 0 0 0 0 0 0 0 0 0 0 0 0 0 0 0 0 0 0 0 0 0 0 0 0 0 0 0 0 0 1 58 109 336 404 482 507 467
0 0 0 0 0 0 0 0 0 0 0 0 0 0 0 0 0 0 0 0 0 0 0 0 0 0 0 0 0 0 0 0 0 0 0 0 0 0 13 51 101 258 488 538 543
0 0 0 0 0 0 0 0 0 0 0 0 0 0 0 0 0 0 0 0 0 0 0 0 0 0 0 0 0 0 0 0 0 0 0 0 0 0 0 0 1 1 75 247 420
0 0 0 0 0 0 0 0 0 0 0 0 0 0 0 0 0 0 0 0 0 0 0 0 0 0 0 0 0 0 0 0 0 0 0 0 0 0 0 0 0 0 0 55 254
0 0 0 0 0 0 0 0 0 0 0 0 0 0 0 0 0 0 0 0 0 0 0 0 0 0 0 0 0 0 0 0 0 0 0 0 0 0 0 0 0 0 0 0 2
0 0 0 0 0 0 0 0 0 0 0 0 0 0 0 0 0 0 0 0 0 0 0 0 0 0 0 0 0 0 0 0 0 0 0 0 0 0 0 0 0 0 0 0 0
0 0 0 0 0 0 0 0 0 0 0 0 0 0 0 0 0 0 0 0 0 0 0 0 0 0 0 0 0 0 1 0 7 0 0 0 0 0 0 0 0 0 0 0 0
0 0 0 0 0 0 0 0 0 0 0 0 0 0 0 0 0 1 0 0 0 0 0 0 0 0 0 0 0 0 1 0 12 5 1 0 0 0 0 0 0 0 0 0 0
0 0 0 0 0 0 0 0 0 0 0 0 0 0 2 7 16 15 10 3 0 0 0 0 0 0 0 0 0 0 0 0 0 3 0 0 22 0 0 0 0 0 0 0 0
0 0 0 0 0 0 0 0 0 1 0 0 6 2 17 19 22 27 11 12 9 16 4 15 11 1 0 0 0 0 0 0 0 0 0 0 4 0 4 0 0 5 0 0 2
0 0 0 1 2 2 0 1 2 2 1 1 0 3 2 3 10 16 19 9 14 32 30 37 8 2 0 0 0 0 0 0 0 0 0 0 0 0 0 0 0 19 0 0 8
0 0 2 2 5 3 6 10 9 9 7 12 7 6 8 5 17 16 9 8 11 23 25 21 14 15 1 0 0 0 0 0 0 0 0 0 0 0 0 0 0 0 0 0 0
CIN
0 0 0 0 0 0 0 0 0 0 0 0 0 0 0 0 0 0 0 0 0 0 0 0 -2 -2 -1 -1 -46 -4 0 -2 -2 -14 -2 -60 -54 -70 -13 -41 -55 -77 -95 -155 -184
0 0 0 0 0 0 0 0 0 0 0 0 0 0 0 0 0 0 0 0 0 0 0 0 0 -1 0 0 -1 -26 -5 -2 -3 -2 -2 -34 -4 -21 -21 -27 -46 -92 -177 -173 -142
0 0 0 0 0 0 0 0 0 0 0 0 0 0 0 0 0 0 0 0 0 0 0 0 0 0 0 0 0 -11 -57 -23 -3 -1 -47 -4 -4 -4 -1 -1 -15 -78 -191 -138 -106
0 0 0 0 0 0 0 0 0 0 0 0 0 0 0 0 0 0 0 0 0 0 0 0 0 0 0 0 0 0 0 -9 -2 -5 -34 -4 -2 -2 -2 -2 -10 -77 -175 -149 -108
0 0 0 0 0 0 0 0 0 0 0 0 0 0 0 0 0 0 0 0 0 0 0 0 0 0 0 0 0 0 0 -28 -25 -15 -30 -39 -2 -2 -2 -21 -40 -91 -180 -129 -77
0 0 0 0 0 0 0 0 0 0 0 0 0 0 0 0 0 0 0 0 0 0 0 0 0 0 0 0 0 0 0 0 0 -69 -56 -46 -4 -15 -8 -51 -67 -110 -153 -114 -84
0 0 0 0 0 0 0 0 0 0 0 0 0 0 0 0 0 0 0 0 0 0 0 0 0 0 0 0 0 0 0 0 0 0 0 -52 -24 -14 -45 -73 -83 -92 -112 -110 -75
0 0 0 0 0 0 0 0 0 0 0 0 0 0 0 0 0 0 0 0 0 0 0 0 0 0 0 0 0 0 0 0 0 0 0 -33 -3 -15 -71 -64 -70 -78 -89 -98 -90
0 0 0 0 0 0 0 0 0 0 0 0 0 0 0 0 0 0 0 0 0 0 0 0 0 0 0 0 0 0 0 0 -2 0 -42 -22 -2 -30 -65 -49 -61 -69 -95 -93 -78
0 0 0 0 0 0 0 0 0 0 0 0 0 0 0 0 0 0 0 0 0 0 0 0 0 0 0 0 0 0 0 0 0 0 -23 -3 -3 -40 -57 -40 -50 -62 -85 -102 -93
0 0 0 0 0 0 0 0 0 0 0 0 0 0 0 0 0 0 0 0 0 0 0 0 0 0 0 0 0 0 0 0 0 -4 -25 -4 -2 -9 -70 -53 -53 -62 -78 -100 -88
0 0 0 0 0 0 0 0 0 0 0 0 0 0 0 0 0 0 0 0 0 0 0 0 0 0 0 0 0 0 0 0 0 0 0 -3 -3 -8 -27 -66 -45 -52 -77 -95 -67
0 0 0 0 0 0 0 0 0 0 0 0 0 0 0 0 0 0 0 0 0 0 0 0 0 0 0 0 0 0 0 0 0 0 0 -2 -3 -3 -9 -39 -46 -39 -31 -56 -95
0 0 0 0 0 0 0 0 0 0 0 0 0 0 0 0 0 0 0 0 0 0 0 0 0 0 0 0 0 0 0 0 0 0 0 0 -4 -2 -6 -43 -58 -59 -68 -72 -75
0 0 0 0 0 0 0 0 0 0 0 0 0 0 0 0 0 0 0 0 0 0 0 0 0 0 0 0 0 0 0 0 0 0 0 -4 -2 -4 -4 -12 -40 -59 -62 -76 -102
0 0 0 0 0 0 0 0 0 0 0 0 0 0 0 0 0 0 0 0 0 0 0 0 0 0 0 0 0 0 0 0 0 0 0 0 0 -4 -20 -26 -26 -45 -55 -76 -76
0 0 0 0 0 0 0 0 0 0 0 0 0 0 0 0 0 0 0 0 0 0 0 0 0 0 0 0 0 0 0 0 0 0 0 0 0 0 -3 -11 -24 -14 -44 -65 -84
0 0 0 0 0 0 0 0 0 0 0 0 0 0 0 0 0 0 0 0 0 0 0 0 0 0 0 0 0 0 0 0 0 0 0 0 0 0 0 0 -4 -1 -16 -36 -56
0 0 0 0 0 0 0 0 0 0 0 0 0 0 0 0 0 0 0 0 0 0 0 0 0 0 0 0 0 0 0 0 0 0 0 0 0 0 0 0 0 0 0 -38 -42
0 0 0 0 0 0 0 0 0 0 0 0 0 0 0 0 0 0 0 0 0 0 0 0 0 0 0 0 0 0 0 0 0 0 0 0 0 0 0 0 0 0 0 0 -23
0 0 0 0 0 0 0 0 0 0 0 0 0 0 0 0 0 0 0 0 0 0 0 0 0 0 0 0 0 0 0 -1 0 0 0 0 0 0 0 0 0 0 0 0 0
0 0 0 0 0 0 0 0 0 0 0 0 0 0 0 0 0 0 0 0 0 0 0 0 0 0 0 -1 0 0 -10 0 -9 -1 0 0 0 0 0 0 0 0 0 0 0
0 0 0 0 0 0 0 0 0 0 0 0 -1 0 -1 -1 0 -1 0 0 0 0 0 0 0 0 0 0 0 0 -1 0 -7 -3 -5 -1 0 0 0 0 0 0 0 0 0
0 0 0 0 0 0 0 0 0 0 0 0 0 -1 -2 -2 -2 -1 -2 -6 0 0 0 0 0 0 0 0 0 0 0 0 0 -6 0 -3 -6 0 0 0 0 0 0 0 0
0 0 0 0 0 0 0 0 -1 -1 0 0 -1 -2 -1 -1 -1 -1 -2 -5 -5 -6 -2 -2 -3 -3 0 0 0 0 0 0 0 0 -1 -3 -7 0 -5 0 0 -163 0 -39 -170
0 0 -1 -1 0 -1 0 -1 -1 -1 -3 -3 -1 -8 -1 -1 -1 -4 -4 -6 -5 -6 -2 -3 -4 -4 0 0 0 0 0 0 0 0 0 0 0 0 0 0 0 -239 0 0 -263
-1 0 -1 -2 0 -1 0 0 0 -1 -1 0 -1 -1 -1 -1 -1 -1 -1 -2 -2 -6 -5 -3 -3 -7 -1 0 0 0 0 0 0 0 0 0 0 0 0 0 0 0 0 0 0
Wind_Speed
31 31 31 31 31 31 30 30 29 28 27 25 26 26 25 24 24 21 24 19 11 4 2 10 10 4 6 12 22 23 19 10 9 13 7 8 19 21 10 11 11 12 7 16 25
31 32 32 32 32 32 32 31 31 29 29 28 27 27 25 23 24 27 21 18 16 4 9 10 5 6 4 21 22 24 19 13 12 13 12 15 6 7 11 13 12 11 11 22 27
32 32 33 33 33 33 33 32 31 30 29 29 27 25 22 22 22 15 15 14 9 5 7 10 10 10 10 14 16 21 16 18 13 12 15 6 10 6 8 9 12 14 20 26 29
31 32 33 32 31 31 32 32 31 30 29 27 25 21 19 17 16 15 22 16 4 12 5 7 10 9 15 16 21 22 26 20 13 12 13 12 7 8 7 13 10 16 22 28 28
33 33 34 34 34 34 32 30 29 30 30 24 19 17 18 17 18 22 20 8 7 13 11 8 9 9 5 12 19 22 22 24 23 22 17 15 8 11 7 11 12 15 22 27 27
35 36 37 37 37 36 34 33 32 31 25 18 14 13 19 19 16 19 15 3 5 9 9 7 11 15 21 13 13 16 25 24 19 19 15 13 9 7 8 7 11 15 21 27 25
38 39 39 39 39 38 36 34 30 25 22 15 12 16 18 19 16 18 12 7 2 5 7 8 16 10 16 15 16 17 28 18 30 26 19 13 11 3 5 5 10 14 19 25 24
40 40 40 39 38 35 34 30 23 20 18 14 13 17 18 16 15 13 10 8 6 12 9 12 18 19 21 18 17 17 36 35 19 5 15 19 10 5 5 3 9 14 18 22 23
40 41 41 40 36 34 32 25 20 18 17 14 16 17 18 15 17 14 10 10 5 10 12 10 15 16 18 23 23 20 33 30 10 8 15 22 19 9 1 9 11 16 16 22 25
41 41 41 39 34 32 28 21 18 15 17 15 18 17 19 21 18 14 12 6 6 10 12 16 19 22 23 20 27 26 34 25 33 17 25 19 22 9 3 2 12 14 16 25 28
41 41 40 37 32 30 26 20 20 18 19 20 20 19 19 20 13 14 8 7 10 12 19 18 22 21 25 27 31 27 29 34 32 23 27 28 31 15 14 11 3 10 14 25 27
41 40 39 35 31 27 25 21 20 20 21 18 19 19 18 18 16 15 8 14 14 21 20 21 32 27 28 27 30 29 28 30 27 31 28 27 35 28 14 21 12 9 13 19 22
41 40 38 35 27 23 24 23 19 15 18 16 16 21 20 19 18 18 16 17 20 24 26 30 24 30 29 30 30 32 31 28 30 27 31 33 34 30 20 22 15 6 11 17 16
40 39 37 33 19 23 22 26 20 9 17 18 16 18 19 17 19 19 17 21 21 27 27 36 34 25 31 34 30 35 30 32 29 31 32 29 37 28 23 20 14 10 20 23 17
40 38 33 25 20 21 23 26 17 12 22 16 16 16 18 17 20 19 18 18 25 25 27 32 30 35 31 33 35 37 29 31 34 37 37 24 34 34 20 24 18 18 15 20 22
38 34 28 18 17 21 25 22 13 16 20 14 16 18 16 17 19 21 19 18 22 27 29 35 26 30 38 32 30 28 31 31 32 36 46 42 32 38 18 20 23 25 27 22 23
35 28 21 20 21 27 24 15 16 19 13 16 17 18 18 19 18 20 21 21 25 28 32 32 34 30 27 32 31 30 31 33 34 39 46 38 45 39 28 21 29 24 22 20 15
33 24 20 21 28 22 16 14 18 17 17 18 21 21 21 21 17 19 20 25 22 26 31 33 37 34 30 36 30 37 36 38 40 38 42 39 43 52 45 22 27 31 23 24 19
30 16 22 29 25 16 14 13 19 19 21 23 24 22 19 18 20 20 20 23 22 23 30 32 38 24 28 31 37 31 46 41 43 34 41 38 42 38 36 45 28 25 27 26 18
22 15 25 30 21 15 17 18 17 19 21 21 22 21 22 20 23 21 19 17 19 20 23 27 36 27 27 31 38 42 33 44 45 49 48 39 40 42 42 36 37 36 32 27 28
15 12 27 28 16 17 17 18 16 20 22 21 21 23 23 25 24 25 22 20 22 22 24 27 32 30 29 35 39 39 45 40 43 45 46 45 37 34 37 33 37 28 30 30 32
15 14 29 24 17 18 18 18 16 21 20 18 18 21 23 24 27 25 24 23 22 23 26 24 30 41 38 25 30 35 40 48 46 50 50 46 42 18 24 32 22 31 34 36 33
21 20 27 18 18 20 18 18 19 19 21 20 19 20 20 22 25 23 27 24 25 26 26 23 30 40 42 41 34 38 36 40 44 48 53 50 48 25 21 18 18 22 23 23 26
19 19 24 28 25 22 20 22 19 21 20 20 20 18 20 22 22 26 27 24 25 26 25 27 34 37 43 32 28 37 38 37 44 52 48 49 38 45 39 32 25 25 23 22 23
21 24 19 23 26 25 23 21 23 22 19 19 18 19 19 19 22 25 28 30 28 25 28 29 37 37 40 37 37 42 44 44 47 47 55 49 46 41 30 26 27 27 26 26 24
23 22 26 26 24 25 23 23 24 23 19 20 21 19 16 13 5 26 27 26 28 24 28 29 38 35 41 40 39 45 45 46 49 49 49 47 46 37 36 35 33 29 28 28 27
24 24 22 26 26 24 26 23 21 20 17 15 15 11 6 5 4 2 3 8 23 26 27 29 31 35 40 34 37 49 49 50 49 48 48 53 46 38 38 38 33 31 30 30 30
Wind_Direction
334 331 328 325 320 317 313 310 306 302 294 287 287 293 297 296 288 288 259 277 285 314 255 118 128 142 137 272 246 226 262 290 314 265 341 52 216 146 309 71 48 86 17 110 127
331 329 326 322 319 318 316 310 309 308 304 302 297 298 301 301 288 246 285 281 275 134 137 143 173 157 229 249 247 238 257 268 274 267 271 120 320 55 62 81 68 58 58 117 129
327 326 323 319 316 318 316 312 309 307 310 310 312 315 317 304 296 308 310 295 285 166 146 140 133 142 261 263 249 249 264 259 282 287 261 289 274 11 31 39 75 97 113 129 134
322 321 319 314 310 309 310 310 309 309 308 319 322 329 327 321 310 310 289 289 160 145 181 162 152 159 258 259 255 260 246 257 285 281 284 264 310 320 39 333 61 105 125 135 140
321 318 318 317 313 310 306 302 298 300 308 328 341 343 333 314 300 301 299 324 144 152 159 177 175 246 219 262 262 259 260 252 256 258 273 266 305 317 336 343 71 102 130 142 142
323 321 321 320 317 315 312 310 304 303 326 349 360 6 325 304 320 315 310 30 140 160 170 194 251 255 265 278 174 274 260 263 266 266 285 282 308 331 329 4 81 112 135 146 147
325 323 323 322 322 319 317 318 325 336 334 353 13 351 324 309 318 312 315 292 245 187 213 239 273 249 273 274 269 266 245 272 257 259 272 280 291 350 34 9 95 119 134 148 150
327 324 321 318 318 317 318 327 346 355 359 4 4 338 329 339 329 327 321 298 261 270 257 265 267 258 266 277 277 266 214 226 177 206 269 257 221 289 90 52 105 124 135 148 154
326 323 322 320 319 322 329 344 356 2 4 10 352 335 327 340 324 319 323 293 252 276 259 269 266 261 265 262 261 260 245 230 260 185 264 251 258 284 102 114 121 133 137 149 155
328 324 324 323 321 330 341 355 4 10 2 353 348 333 336 319 318 314 309 302 258 258 262 253 258 258 258 254 254 255 246 252 241 257 246 255 254 271 248 126 131 136 141 153 160
327 324 325 324 324 335 349 353 345 346 345 335 333 332 332 330 338 318 308 286 276 250 253 249 247 246 253 253 251 260 254 245 246 254 248 251 243 259 256 257 168 137 144 156 161
328 326 327 327 331 345 350 345 346 340 327 342 340 339 337 328 323 322 303 276 260 252 252 254 252 254 255 254 254 256 255 250 251 244 250 252 243 251 250 248 252 154 150 151 157
328 326 324 325 341 2 355 353 357 0 331 338 343 336 329 321 315 313 290 285 262 253 250 254 266 253 253 252 252 252 252 252 248 252 248 249 249 249 248 249 251 199 161 156 158
328 326 320 314 1 357 360 356 356 30 326 331 335 338 334 325 305 318 301 281 271 258 256 257 255 264 249 250 250 252 252 252 253 250 250 247 249 249 245 243 236 224 169 169 166
325 318 312 339 351 357 353 333 30 31 316 344 346 351 341 322 314 312 307 280 271 266 254 254 253 250 252 253 249 249 257 252 252 249 249 246 250 247 235 241 233 245 186 176 175
315 307 307 0 358 344 319 327 30 340 319 350 350 340 336 333 317 310 304 293 281 267 261 259 258 256 251 254 254 252 252 253 253 249 245 242 247 244 236 233 245 248 244 180 176
310 304 346 354 342 318 326 340 336 319 349 339 335 336 333 331 323 311 294 285 275 264 258 257 253 255 256 247 247 245 241 245 246 242 244 245 244 243 251 243 246 245 244 243 212
307 315 2 358 313 341 352 344 319 330 328 327 322 322 319 318 326 316 302 279 283 273 265 255 251 247 248 246 245 241 241 240 243 245 246 246 245 237 241 260 249 246 249 248 244
308 1 345 324 338 7 349 338 329 326 320 319 317 317 319 319 312 312 306 292 288 281 262 259 252 258 253 250 245 244 239 244 250 255 249 247 245 249 246 240 246 247 250 246 248
1 11 341 322 355 15 341 325 335 336 330 328 319 322 313 316 308 308 303 302 293 290 283 267 256 259 252 253 249 246 250 240 243 243 243 247 245 241 243 243 243 245 247 247 251
36 41 334 325 19 8 337 335 345 345 337 332 326 319 320 311 306 298 298 296 289 286 284 276 259 255 256 247 244 243 242 244 244 242 243 244 248 248 247 245 241 247 247 250 250
67 68 326 347 21 13 1 357 8 352 359 356 347 334 320 314 304 297 291 290 290 285 277 276 265 252 251 257 254 253 246 240 241 238 242 246 244 258 253 241 246 246 249 250 252
41 39 360 37 38 30 39 30 21 13 7 4 357 347 337 320 309 299 288 291 288 281 278 276 264 254 250 252 253 247 246 247 246 243 239 239 239 245 251 248 251 251 256 258 257
65 57 40 30 36 48 48 23 24 16 13 6 359 357 343 324 312 301 293 290 287 279 279 274 262 256 247 258 257 246 245 246 244 239 239 240 246 239 241 248 260 260 261 262 261
71 60 80 48 31 36 32 30 18 17 22 22 21 14 8 355 327 307 294 282 281 276 272 268 261 259 256 260 257 252 248 247 243 243 239 242 242 240 241 254 261 261 259 259 260
69 67 56 48 47 37 39 30 22 21 29 32 31 36 37 35 79 320 305 295 281 280 271 268 260 262 258 257 257 253 250 248 245 244 244 245 246 247 251 254 256 260 261 259 260
66 67 62 46 38 39 32 31 31 33 45 47 48 61 110 88 80 140 184 199 292 280 274 266 263 259 256 259 258 250 249 248 247 245 245 241 247 251 251 251 256 259 261 261 260